| time (UTC) | temp F | wind direction | speed MPH | gust MPH | rain 1hr in | rain 24hr in | rain mn in | humidity % | barometer mb |
| 20260505014027 | 60 | 274 | 1.0 | 5.0 | 0.00 | 0.00 | 0.00 | 40 | 1009.4 |
| 20260505013527 | 60 | 263 | 1.0 | 5.0 | 0.00 | 0.00 | 0.00 | 41 | 1009.4 |
| 20260505013027 | 60 | 275 | 2.0 | 3.0 | 0.00 | 0.00 | 0.00 | 42 | 1009.5 |
| 20260505012529 | 60 | 0 | 0.0 | 3.0 | 0.00 | 0.00 | 0.00 | 45 | 1009.6 |
| 20260505012027 | 60 | 0 | 0.0 | 3.0 | 0.00 | 0.00 | 0.00 | 43 | 1009.5 |
| 20260505011529 | 60 | 270 | 0.0 | 3.0 | 0.00 | 0.00 | 0.00 | 42 | 1009.5 |
| 20260505011027 | 60 | 0 | 0.0 | 2.0 | 0.00 | 0.00 | 0.00 | 42 | 1009.6 |
| 20260505010527 | 60 | 294 | 0.0 | 2.0 | 0.00 | 0.00 | 0.00 | 44 | 1009.6 |
| 20260505010027 | 60 | 0 | 0.0 | 0.0 | 0.00 | 0.00 | 0.00 | 46 | 1009.6 |
| 20260505005527 | 60 | 0 | 0.0 | 0.0 | 0.00 | 0.00 | 0.00 | 48 | 1009.7 |
| 20260505005029 | 60 | 0 | 0.0 | 0.0 | 0.00 | 0.00 | 0.00 | 46 | 1009.6 |
| 20260505004527 | 60 | 0 | 0.0 | 0.0 | 0.00 | 0.00 | 0.00 | 48 | 1009.7 |
| 20260505004027 | 59 | 0 | 0.0 | 0.0 | 0.00 | 0.00 | 0.00 | 48 | 1009.7 |
| 20260505003527 | 59 | 0 | 0.0 | 0.0 | 0.00 | 0.00 | 0.00 | 47 | 1009.7 |
| 20260505003027 | 60 | 0 | 0.0 | 0.0 | 0.00 | 0.00 | 0.00 | 46 | 1009.7 |
| 20260505002527 | 60 | 0 | 0.0 | 0.0 | 0.00 | 0.00 | 0.00 | 47 | 1009.8 |
| 20260505002029 | 60 | 0 | 0.0 | 0.0 | 0.00 | 0.00 | 0.00 | 47 | 1009.8 |
| 20260505001527 | 60 | 0 | 0.0 | 0.0 | 0.00 | 0.00 | 0.00 | 47 | 1009.8 |
| 20260505001027 | 60 | 0 | 0.0 | 0.0 | 0.00 | 0.00 | 0.00 | 47 | 1009.8 |
| 20260505000527 | 60 | 0 | 0.0 | 0.0 | 0.00 | 0.00 | 0.00 | 48 | 1009.8 |
| 20260505000027 | 60 | 0 | 0.0 | 0.0 | 0.00 | 0.00 | 0.00 | 48 | 1009.9 |
| 20260504235527 | 60 | 0 | 0.0 | 0.0 | 0.00 | 0.00 | 0.00 | 48 | 1009.9 |
| 20260504235119 | 60 | 0 | 0.0 | 0.0 | 0.00 | 0.00 | 0.00 | 48 | 1009.9 |
| 20260504235028 | 60 | 0 | 0.0 | 0.0 | 0.00 | 0.00 | 0.00 | 48 | 1009.9 |
| 20260504234527 | 61 | 0 | 0.0 | 0.0 | 0.00 | 0.00 | 0.00 | 48 | 1009.9 |
| 20260504234027 | 61 | 0 | 0.0 | 0.0 | 0.00 | 0.00 | 0.00 | 48 | 1009.9 |
| 20260504233527 | 61 | 0 | 0.0 | 0.0 | 0.00 | 0.00 | 0.00 | 49 | 1010.1 |
| 20260504233027 | 61 | 0 | 0.0 | 0.0 | 0.00 | 0.00 | 0.00 | 48 | 1010.1 |
| 20260504232527 | 61 | 0 | 0.0 | 0.0 | 0.00 | 0.00 | 0.00 | 48 | 1010.1 |
| 20260504232027 | 62 | 0 | 0.0 | 0.0 | 0.00 | 0.00 | 0.00 | 47 | 1010.1 |
| 20260504231527 | 62 | 0 | 0.0 | 0.0 | 0.00 | 0.00 | 0.00 | 48 | 1010.2 |
| 20260504231027 | 62 | 0 | 0.0 | 0.0 | 0.00 | 0.00 | 0.00 | 47 | 1010.1 |
| 20260504230527 | 62 | 0 | 0.0 | 0.0 | 0.00 | 0.00 | 0.00 | 47 | 1010.1 |
| 20260504230028 | 62 | 0 | 0.0 | 0.0 | 0.00 | 0.00 | 0.00 | 47 | 1010.2 |
| 20260504225527 | 62 | 0 | 0.0 | 0.0 | 0.00 | 0.00 | 0.00 | 47 | 1010.2 |
| 20260504225029 | 63 | 0 | 0.0 | 0.0 | 0.00 | 0.00 | 0.00 | 47 | 1010.3 |
| 20260504224527 | 63 | 0 | 0.0 | 0.0 | 0.00 | 0.00 | 0.00 | 47 | 1010.2 |
| 20260504224029 | 63 | 0 | 0.0 | 0.0 | 0.00 | 0.00 | 0.00 | 47 | 1010.2 |
| 20260504223528 | 63 | 0 | 0.0 | 0.0 | 0.00 | 0.00 | 0.00 | 47 | 1010.2 |
| 20260504223027 | 63 | 0 | 0.0 | 0.0 | 0.00 | 0.00 | 0.00 | 46 | 1010.2 |
| 20260504222527 | 63 | 0 | 0.0 | 0.0 | 0.00 | 0.00 | 0.00 | 47 | 1010.3 |
| 20260504222027 | 62 | 0 | 0.0 | 0.0 | 0.00 | 0.00 | 0.00 | 46 | 1010.3 |
| 20260504221527 | 63 | 0 | 0.0 | 0.0 | 0.00 | 0.00 | 0.00 | 47 | 1010.3 |
| 20260504221027 | 63 | 0 | 0.0 | 0.0 | 0.00 | 0.00 | 0.00 | 46 | 1010.4 |
| 20260504220526 | 63 | 0 | 0.0 | 0.0 | 0.00 | 0.00 | 0.00 | 46 | 1010.4 |
| 20260504220027 | 63 | 0 | 0.0 | 0.0 | 0.00 | 0.00 | 0.00 | 46 | 1010.4 |
| 20260504215526 | 63 | 0 | 0.0 | 0.0 | 0.00 | 0.00 | 0.00 | 46 | 1010.5 |
| 20260504215027 | 63 | 0 | 0.0 | 0.0 | 0.00 | 0.00 | 0.00 | 45 | 1010.4 |
| 20260504214526 | 63 | 0 | 0.0 | 0.0 | 0.00 | 0.00 | 0.00 | 45 | 1010.5 |
| 20260504214027 | 63 | 0 | 0.0 | 0.0 | 0.00 | 0.00 | 0.00 | 45 | 1010.5 |
| 20260504213526 | 63 | 0 | 0.0 | 0.0 | 0.00 | 0.00 | 0.00 | 46 | 1010.5 |
| 20260504213027 | 63 | 0 | 0.0 | 0.0 | 0.00 | 0.00 | 0.00 | 46 | 1010.5 |
| 20260504212527 | 63 | 0 | 0.0 | 0.0 | 0.00 | 0.00 | 0.00 | 46 | 1010.5 |
| 20260504212027 | 63 | 0 | 0.0 | 0.0 | 0.00 | 0.00 | 0.00 | 45 | 1010.5 |
| 20260504211527 | 63 | 0 | 0.0 | 0.0 | 0.00 | 0.00 | 0.00 | 44 | 1010.6 |
| 20260504211027 | 63 | 0 | 0.0 | 0.0 | 0.00 | 0.00 | 0.00 | 45 | 1010.5 |
| 20260504210526 | 63 | 0 | 0.0 | 0.0 | 0.00 | 0.00 | 0.00 | 45 | 1010.5 |
| 20260504210027 | 63 | 0 | 0.0 | 0.0 | 0.00 | 0.00 | 0.00 | 45 | 1010.6 |
| 20260504205527 | 63 | 0 | 0.0 | 0.0 | 0.00 | 0.00 | 0.00 | 45 | 1010.6 |
| 20260504205027 | 63 | 0 | 0.0 | 0.0 | 0.00 | 0.00 | 0.00 | 45 | 1010.7 |
| 20260504204529 | 63 | 0 | 0.0 | 0.0 | 0.00 | 0.00 | 0.00 | 46 | 1010.7 |
| 20260504204027 | 63 | 0 | 0.0 | 0.0 | 0.00 | 0.00 | 0.00 | 45 | 1010.7 |
| 20260504203528 | 62 | 0 | 0.0 | 0.0 | 0.00 | 0.00 | 0.00 | 46 | 1010.7 |
| 20260504203027 | 63 | 0 | 0.0 | 0.0 | 0.00 | 0.00 | 0.00 | 45 | 1010.7 |
| 20260504202527 | 63 | 0 | 0.0 | 0.0 | 0.00 | 0.00 | 0.00 | 46 | 1010.7 |
| 20260504202027 | 63 | 0 | 0.0 | 0.0 | 0.00 | 0.00 | 0.00 | 46 | 1010.7 |
| 20260504201526 | 62 | 0 | 0.0 | 0.0 | 0.00 | 0.00 | 0.00 | 46 | 1010.7 |
| 20260504201026 | 62 | 0 | 0.0 | 0.0 | 0.00 | 0.00 | 0.00 | 47 | 1010.7 |
| 20260504200528 | 62 | 0 | 0.0 | 0.0 | 0.00 | 0.00 | 0.00 | 47 | 1010.7 |
| 20260504200027 | 62 | 0 | 0.0 | 0.0 | 0.00 | 0.00 | 0.00 | 47 | 1010.7 |
| 20260504195528 | 62 | 0 | 0.0 | 0.0 | 0.00 | 0.00 | 0.00 | 46 | 1010.8 |
| 20260504195027 | 62 | 0 | 0.0 | 0.0 | 0.00 | 0.00 | 0.00 | 47 | 1010.8 |
| 20260504194528 | 62 | 0 | 0.0 | 0.0 | 0.00 | 0.00 | 0.00 | 47 | 1010.7 |
| 20260504194027 | 62 | 0 | 0.0 | 0.0 | 0.00 | 0.00 | 0.00 | 46 | 1010.7 |
| 20260504193527 | 62 | 0 | 0.0 | 0.0 | 0.00 | 0.00 | 0.00 | 46 | 1010.6 |
| 20260504193027 | 62 | 0 | 0.0 | 0.0 | 0.00 | 0.00 | 0.00 | 46 | 1010.6 |
| 20260504192526 | 62 | 0 | 0.0 | 0.0 | 0.00 | 0.00 | 0.00 | 47 | 1010.6 |
| 20260504192027 | 61 | 0 | 0.0 | 0.0 | 0.00 | 0.00 | 0.00 | 47 | 1010.6 |
| 20260504191527 | 61 | 0 | 0.0 | 0.0 | 0.00 | 0.00 | 0.00 | 46 | 1010.6 |
| 20260504191027 | 61 | 0 | 0.0 | 0.0 | 0.00 | 0.00 | 0.00 | 47 | 1010.7 |
| 20260504190528 | 62 | 0 | 0.0 | 0.0 | 0.00 | 0.00 | 0.00 | 47 | 1010.6 |
| 20260504190119 | 61 | 0 | 0.0 | 0.0 | 0.00 | 0.00 | 0.00 | 46 | 1010.7 |
| 20260504190027 | 61 | 0 | 0.0 | 0.0 | 0.00 | 0.00 | 0.00 | 46 | 1010.7 |
| 20260504185527 | 61 | 0 | 0.0 | 0.0 | 0.00 | 0.00 | 0.00 | 46 | 1010.7 |
| 20260504185026 | 61 | 0 | 0.0 | 0.0 | 0.00 | 0.00 | 0.00 | 45 | 1010.6 |
| 20260504184526 | 61 | 0 | 0.0 | 0.0 | 0.00 | 0.00 | 0.00 | 45 | 1010.7 |
| 20260504184027 | 61 | 0 | 0.0 | 0.0 | 0.00 | 0.00 | 0.00 | 44 | 1010.7 |
| 20260504183527 | 61 | 0 | 0.0 | 0.0 | 0.00 | 0.00 | 0.00 | 44 | 1010.6 |
| 20260504183027 | 61 | 0 | 0.0 | 0.0 | 0.00 | 0.00 | 0.00 | 43 | 1010.5 |
| 20260504182526 | 61 | 0 | 0.0 | 0.0 | 0.00 | 0.00 | 0.00 | 44 | 1010.5 |
| 20260504182026 | 62 | 0 | 0.0 | 0.0 | 0.00 | 0.00 | 0.00 | 45 | 1010.5 |
| 20260504181529 | 62 | 0 | 0.0 | 0.0 | 0.00 | 0.00 | 0.00 | 43 | 1010.5 |
| 20260504181027 | 62 | 0 | 0.0 | 0.0 | 0.00 | 0.00 | 0.00 | 42 | 1010.4 |
| 20260504180527 | 62 | 0 | 0.0 | 0.0 | 0.00 | 0.00 | 0.00 | 41 | 1010.3 |
| 20260504180026 | 62 | 0 | 0.0 | 0.0 | 0.00 | 0.00 | 0.00 | 35 | 1010.3 |
| 20260504175528 | 62 | 0 | 0.0 | 0.0 | 0.00 | 0.00 | 0.00 | 38 | 1010.3 |
| 20260504175026 | 62 | 0 | 0.0 | 0.0 | 0.00 | 0.00 | 0.00 | 35 | 1010.2 |
| 20260504174527 | 62 | 0 | 0.0 | 0.0 | 0.00 | 0.00 | 0.00 | 35 | 1010.2 |
| 20260504174026 | 62 | 0 | 0.0 | 0.0 | 0.00 | 0.00 | 0.00 | 38 | 1010.3 |
| 20260504173526 | 62 | 0 | 0.0 | 0.0 | 0.00 | 0.00 | 0.00 | 37 | 1010.3 |
| 20260504173026 | 62 | 0 | 0.0 | 0.0 | 0.00 | 0.00 | 0.00 | 36 | 1010.3 |
| 20260504172526 | 62 | 2 | 0.0 | 0.0 | 0.00 | 0.00 | 0.00 | 36 | 1010.3 |
| 20260504172028 | 62 | 0 | 0.0 | 0.0 | 0.00 | 0.00 | 0.00 | 31 | 1010.3 |
| 20260504171526 | 62 | 0 | 0.0 | 0.0 | 0.00 | 0.00 | 0.00 | 31 | 1010.2 |
| 20260504171026 | 62 | 0 | 0.0 | 0.0 | 0.00 | 0.00 | 0.00 | 31 | 1010.2 |
| 20260504170526 | 62 | 0 | 0.0 | 0.0 | 0.00 | 0.00 | 0.00 | 32 | 1010.1 |
| 20260504151026 | 60 | 320 | 0.0 | 5.0 | 0.00 | 0.00 | 0.00 | 39 | 1009.8 |
| 20260504150526 | 60 | 294 | 0.0 | 5.0 | 0.00 | 0.00 | 0.00 | 41 | 1009.7 |
| 20260504141026 | 59 | 351 | 1.0 | 2.0 | 0.00 | 0.00 | 0.00 | 44 | 1009.3 |
| 20260504140526 | 59 | 334 | 0.0 | 2.0 | 0.00 | 0.00 | 0.00 | 44 | 1009.3 |
| 20260504130526 | 59 | 0 | 0.0 | 0.0 | 0.00 | 0.00 | 0.00 | 40 | 1008.7 |
| 20260504110525 | 60 | 0 | 0.0 | 0.0 | 0.00 | 0.00 | 0.00 | 41 | 1008.7 |
| 20260504100525 | 60 | 0 | 0.0 | 0.0 | 0.00 | 0.00 | 0.00 | 44 | 1008.7 |
| 20260504081528 | 60 | 316 | 0.0 | 2.0 | 0.00 | 0.00 | 0.00 | 43 | 1008.9 |
| 20260504081025 | 61 | 338 | 0.0 | 1.0 | 0.00 | 0.00 | 0.00 | 43 | 1008.9 |
| 20260504080525 | 61 | 0 | 0.0 | 0.0 | 0.00 | 0.00 | 0.00 | 43 | 1008.9 |
| 20260504050525 | 64 | 0 | 0.0 | 2.0 | 0.00 | 0.00 | 0.00 | 34 | 1008.8 |
| 20260504050025 | 64 | 0 | 0.0 | 2.0 | 0.00 | 0.00 | 0.00 | 34 | 1008.8 |
| 20260504045524 | 64 | 324 | 0.0 | 2.0 | 0.00 | 0.00 | 0.00 | 34 | 1008.8 |
| 20260504045027 | 64 | 0 | 0.0 | 0.0 | 0.00 | 0.00 | 0.00 | 35 | 1008.8 |
| 20260504044524 | 64 | 338 | 0.0 | 0.0 | 0.00 | 0.00 | 0.00 | 35 | 1008.8 |
| 20260504044025 | 64 | 0 | 0.0 | 0.0 | 0.00 | 0.00 | 0.00 | 34 | 1008.8 |
| 20260504043525 | 64 | 338 | 0.0 | 2.0 | 0.00 | 0.00 | 0.00 | 35 | 1008.8 |
| 20260504043024 | 64 | 330 | 0.0 | 2.0 | 0.00 | 0.00 | 0.00 | 35 | 1008.8 |
| 20260504042524 | 64 | 25 | 0.0 | 2.0 | 0.00 | 0.00 | 0.00 | 35 | 1008.7 |
| 20260504042027 | 64 | 326 | 0.0 | 2.0 | 0.00 | 0.00 | 0.00 | 34 | 1008.7 |
| 20260504041524 | 64 | 0 | 0.0 | 0.0 | 0.00 | 0.00 | 0.00 | 34 | 1008.7 |
| 20260504041025 | 64 | 308 | 0.0 | 3.0 | 0.00 | 0.00 | 0.00 | 34 | 1008.6 |
| 20260504040526 | 64 | 344 | 0.0 | 3.0 | 0.00 | 0.00 | 0.00 | 34 | 1008.6 |
| 20260504040025 | 64 | 330 | 0.0 | 3.0 | 0.00 | 0.00 | 0.00 | 33 | 1008.5 |
| 20260504035524 | 65 | 4 | 0.0 | 3.0 | 0.00 | 0.00 | 0.00 | 34 | 1008.6 |
| 20260504035025 | 65 | 322 | 0.0 | 3.0 | 0.00 | 0.00 | 0.00 | 33 | 1008.6 |
| 20260504034524 | 65 | 330 | 0.0 | 3.0 | 0.00 | 0.00 | 0.00 | 32 | 1008.6 |
| 20260504034025 | 65 | 347 | 1.0 | 3.0 | 0.00 | 0.00 | 0.00 | 32 | 1008.5 |
| 20260504033525 | 65 | 345 | 0.0 | 3.0 | 0.00 | 0.00 | 0.00 | 32 | 1008.5 |
| 20260504033025 | 65 | 338 | 0.0 | 2.0 | 0.00 | 0.00 | 0.00 | 32 | 1008.4 |
| 20260504032524 | 65 | 317 | 0.0 | 2.0 | 0.00 | 0.00 | 0.00 | 31 | 1008.4 |
| 20260504032026 | 65 | 22 | 1.0 | 1.0 | 0.00 | 0.00 | 0.00 | 31 | 1008.4 |
| 20260504031524 | 65 | 21 | 0.0 | 3.0 | 0.00 | 0.00 | 0.00 | 30 | 1008.4 |
| 20260504031024 | 65 | 315 | 0.0 | 3.0 | 0.00 | 0.00 | 0.00 | 30 | 1008.4 |
| 20260504030526 | 66 | 327 | 1.0 | 3.0 | 0.00 | 0.00 | 0.00 | 28 | 1008.4 |
| 20260504030024 | 66 | 340 | 1.0 | 4.0 | 0.00 | 0.00 | 0.00 | 28 | 1008.3 |
| 20260504025524 | 66 | 338 | 2.0 | 4.0 | 0.00 | 0.00 | 0.00 | 27 | 1008.3 |
| 20260504025024 | 66 | 338 | 2.0 | 4.0 | 0.00 | 0.00 | 0.00 | 27 | 1008.3 |
| 20260504024524 | 66 | 322 | 1.0 | 4.0 | 0.00 | 0.00 | 0.00 | 26 | 1008.4 |
| 20260504024024 | 67 | 306 | 2.0 | 5.0 | 0.00 | 0.00 | 0.00 | 26 | 1008.3 |
| 20260504023524 | 67 | 316 | 2.0 | 5.0 | 0.00 | 0.00 | 0.00 | 26 | 1008.4 |
| 20260504023024 | 67 | 327 | 3.0 | 5.0 | 0.00 | 0.00 | 0.00 | 25 | 1008.3 |
| 20260504022524 | 68 | 320 | 3.0 | 4.0 | 0.00 | 0.00 | 0.00 | 25 | 1008.4 |
| 20260504022024 | 68 | 326 | 2.0 | 4.0 | 0.00 | 0.00 | 0.00 | 25 | 1008.4 |
| 20260504021524 | 68 | 329 | 3.0 | 4.0 | 0.00 | 0.00 | 0.00 | 25 | 1008.4 |
| 20260504021024 | 68 | 310 | 2.0 | 4.0 | 0.00 | 0.00 | 0.00 | 24 | 1008.4 |
| 20260504020526 | 69 | 323 | 2.0 | 3.0 | 0.00 | 0.00 | 0.00 | 24 | 1008.4 |
| 20260504020024 | 69 | 326 | 2.0 | 3.0 | 0.00 | 0.00 | 0.00 | 22 | 1008.4 |
| 20260504015524 | 69 | 337 | 1.0 | 3.0 | 0.00 | 0.00 | 0.00 | 22 | 1008.5 |
| 20260504015024 | 70 | 331 | 2.0 | 4.0 | 0.00 | 0.00 | 0.00 | 21 | 1008.5 |
| 20260504014524 | 70 | 324 | 2.0 | 4.0 | 0.00 | 0.00 | 0.00 | 22 | 1008.6 |